BINAR-4

Last updated on Tue Nov 05 2024 00:02:08 GMT+0000 (Coordinated Universal Time)

1 60952U 98067WS 24309.27445772 .07980878 12042-4 24966-2 0 9997 2 60952 51.6099 332.5936 0004199 58.1619 301.9809 16.25742416 10490

Satellite not in orbit

BINAR-4